Simultaneous Nadir Overpasses (SNOs) Predictions

Prediction of SNOs between FY3D and LANDSAT-8 Satellite Orbit:

Table of predicted SNOs for the next 14.0 days since TLE Epoch: 5/14/2022
Index Date (FY3D) Time (FY3D) Lat,Lon (FY3D) SZA (FY3D ) Date (LANDSAT-8) Time (LANDSAT-8) Lat,Lon (LANDSAT-8) SZA (LANDSAT-8 ) Distance(km) Time Diff (sec)
1 05/14/2022 08:23:38 -71.88,-126.97 126.88 05/14/2022 08:24:19 -71.86,-127.02 126.91 3.00 41
2 05/14/2022 09:14:22 71.77, 40.54 53.01 05/14/2022 09:13:46 71.77, 40.48 53.00 2.23 36
3 05/16/2022 23:50:44 71.87,-178.70 52.49 05/16/2022 23:51:21 71.87,-178.75 52.49 1.81 37
4 05/17/2022 00:41:28 -71.80, -11.26 127.59 05/17/2022 00:40:50 -71.80, -11.23 127.59 1.22 38
5 05/19/2022 15:17:50 -71.90, 129.49 128.06 05/19/2022 15:18:25 -71.89, 129.52 128.07 1.38 35
6 05/19/2022 16:08:34 71.79, -63.01 51.83 05/19/2022 16:07:52 71.79, -63.00 51.83 0.37 42
7 05/22/2022 06:44:55 71.90, 77.74 51.41 05/22/2022 06:45:25 71.91, 77.81 51.42 3.05 30
8 05/22/2022 07:35:38 -71.78,-114.72 128.73 05/22/2022 07:34:55 -71.80,-114.74 128.71 3.02 43
9 05/24/2022 22:12:00 -71.88, 26.02 129.11 05/24/2022 22:12:29 -71.91, 26.05 129.09 3.00 29
10 05/24/2022 23:02:44 71.79,-166.49 50.79 05/24/2022 23:01:56 71.81,-166.48 50.81 2.45 48
11 05/27/2022 13:39:06 71.90, -25.76 50.45 05/27/2022 13:39:30 71.90, -25.72 50.45 1.59 24
12 05/27/2022 14:29:49 -71.78, 141.78 129.69 05/27/2022 14:29:00 -71.79, 141.73 129.67 2.70 49



Historial Predications of SNOs between FY3D and LANDSAT-8
